    Orbital elements:
    2020 HB11                                                                       
    Epoch 2020 May 1.0 TT = JDT 2458970.5                   Bell                    
    M 358.32051              (2000.0)            P               Q                  
    n   0.01465254     Peri.  104.53843     -0.85116626     -0.13505808             
    a  16.5396908      Node   290.14525     -0.24918388     +0.95446791             
    e   0.7074730      Incl.  147.29758     +0.46197770     +0.26598933             
    P  67.3            H   14.99          G   0.15           U   7                  
    Residuals in seconds of arc
    200418 G96  0.6-  0.1-    200424 L01  0.1+  0.3-    200513 F52  0.1-  0.1+
    200418 G96  0.1-  0.2+    200424 L01  0.1-  0.2+    200513 F52  0.2-  0.1-
    200418 G96  0.2-  0.3-    200426 V06  0.3+  0.1+    200513 F52  0.2-  0.1-
    200418 G96  0.2-  0.2+    200426 V06  0.1+  0.1-    200513 F65  0.2+  0.2-
    200418 V06  0.1-  0.3-    200426 V06  0.3+  0.1-    200513 F65  0.3+  0.2-
    200418 V06  0.1-  0.1-    200426 V06  0.1-  0.1-    200513 F65  0.2+  0.2-
    200418 V06  0.6-  0.3-    200428 V06  0.1+  0.1-    200513 F65  0.2+  0.2-
    200418 V06  0.0+  0.1-    200428 V06  0.1+  0.3-    200517 F65  0.2+  0.3-
    200419 H21  0.4+  0.2+    200428 V06  0.1-  0.0-    200517 F65  0.1+  0.2-
    200419 H21  0.1+  0.3+    200428 V06  0.2+  0.3-    200517 F65  0.3-  0.2-
    200421 V06  0.3+  0.0-    200428 F52  0.1+  0.1+    200517 F65  0.0+  0.3-
    200421 V06  0.1+  0.2-    200428 F52  0.1+  0.1-    200519 H06  0.2-  0.1+
    200421 V06  0.3-  0.2-    200428 F52  0.3+  0.0+    200519 H06  0.5+  0.1+
    200422 V06  1.1-  0.5-    200428 F52  0.2+  0.0-    200519 658  0.7-  0.7+
    200422 V06  1.8+  1.3-    200429 G96  0.3-  0.2+    200519 658  0.6-  0.5+
    200422 V06  0.1-  0.0-    200429 G96  0.0+  0.4-    200519 658  0.4-  0.3+
    200422 V06  0.1+  0.1+    200429 G96  0.2+  0.0+    200519 658  0.2-  0.1+
    200422 F65  0.1-  0.1+    200429 G96  0.2+  0.3+    200519 658  0.2-  0.0+
    200422 F65  0.1-  0.1+    200501 V06  0.3-  0.1-    200519 658  0.3-  0.2-
    200422 F65  0.2-  0.0+    200501 V06  0.1-  0.1-    200525 673  0.4+  0.2-
    200423 V06  0.4-  0.2-    200501 V06  0.5+  0.2-    200525 673  0.2-  0.0-
    200423 V06  0.1-  0.1-    200513 V06  0.2+  0.4-    200525 568  0.0+  0.0+
    200423 V06  0.1-  0.0+    200513 V06  0.2+  0.4-    200525 568  0.1+  0.0+
    200423 V06  0.1-  0.1-    200513 V06  0.2+  0.1-    200525 568  0.1+  0.0+
    200424 L01  0.4+  0.2-    200513 V06  0.4+  0.1+
    Ephemeris:
    2020 HB11                a,e,i = 16.54, 0.71, 147                q = 4.8383
    Date    TT    R. A. (2000) Decl.     Delta      r    Elong.  Phase     V
    2020 04 27    14 00 11.0 +30 45 22   4.1348  4.9007   135.2     8.3    22.1
    ...
    2020 05 12    13 36 20.1 +31 50 53   4.2411  4.8860   124.6     9.8    22.2
    ...
    2020 05 20    13 24 37.6 +32 02 56   4.3255  4.8790   117.7    10.6    22.3
    ...
    2020 05 26    13 16 32.7 +32 02 39   4.3991  4.8740   112.3    11.1    22.3
    2020 05 27    13 15 15.8 +32 01 54   4.4121  4.8733   111.4    11.2    22.3
    2020 05 28    13 14 00.1 +32 00 57   4.4253  4.8725   110.4    11.2    22.4
    ...
    2020 06 03    13 06 51.3 +31 51 38   4.5079  4.8680   104.9    11.6    22.4
    ...
    2020 06 11    12 58 29.3 +31 30 38   4.6258  4.8625    97.4    12.0    22.5
    ...
    2020 06 26    12 46 24.2 +30 32 07   4.8596  4.8536    83.7    12.0    22.6
    
    M. P. C. Staff               (C) Copyright 2020 MPC           M.P.E.C. 2020-K199
    


    Read MPEC 2020-K198 Read MPEC 2020-K200


    MPEC number:

    Enter an MPEC number in one of the following forms:

    • 1997-B01 (the full form)
    • J97B01 (the packed version of the full form)
    • B01 (the abbreviated form)